APOLO11 BIKF-BIKF

Flight info

Callsign APOLO11
Flight time N/A
Altitude 41000
Route VFR
Aircraft EUFI/M-V/N

Departure

Time 2026-05-07 18:38
Airport Keflavik International Airport (BIKF)

Arrival

Time N/A
Airport Keflavik International Airport (BIKF)
Time Latitude Longitude Altitude Speed Heading
2026-05-07 18:31 63.98174 -22.65758 107 ft 0 kts 172°
2026-05-07 18:36 63.98161 -22.65722 107 ft 10 kts 102°
2026-05-07 18:36 63.98167 -22.65580 110 ft 10 kts 81°
2026-05-07 18:36 63.98218 -22.65466 114 ft 13 kts 354°
2026-05-07 18:36 63.98302 -22.65467 114 ft 11 kts 358°
2026-05-07 18:37 63.98386 -22.65469 114 ft 20 kts
2026-05-07 18:37 63.98512 -22.65458 116 ft 10 kts 26°
2026-05-07 18:37 63.98506 -22.65359 116 ft 9 kts 94°
2026-05-07 18:37 63.98506 -22.65349 117 ft 0 kts 89°
2026-05-07 18:38 63.98506 -22.65344 117 ft 7 kts 89°
2026-05-07 18:38 63.98501 -22.63780 135 ft 205 kts 93°
2026-05-07 18:38 63.98453 -22.59662 940 ft 311 kts 87°
2026-05-07 18:39 63.98409 -22.53768 2610 ft 433 kts 88°
2026-05-07 18:39 63.98387 -22.46138 4709 ft 522 kts 89°
2026-05-07 18:39 63.98355 -22.37452 7271 ft 571 kts 88°
2026-05-07 18:39 63.98267 -22.28264 10164 ft 586 kts 90°
2026-05-07 18:40 63.98010 -22.18865 11869 ft 607 kts 92°
2026-05-07 18:40 63.97717 -22.09177 12616 ft 621 kts 92°
2026-05-07 18:40 63.97405 -21.99409 13425 ft 631 kts 92°
2026-05-07 18:40 63.97208 -21.92634 13812 ft 638 kts 90°
2026-05-07 18:41 63.98010 -21.79358 14104 ft 647 kts 71°
2026-05-07 18:41 63.99855 -21.70032 14179 ft 647 kts 57°
2026-05-07 18:41 64.02643 -21.62062 14219 ft 643 kts 43°
2026-05-07 18:41 64.06199 -21.55965 14212 ft 639 kts 28°
2026-05-07 18:42 64.10294 -21.52127 14202 ft 636 kts 14°
2026-05-07 18:42 64.13179 -21.50956 14201 ft 635 kts
2026-05-07 18:42 64.17582 -21.51218 14217 ft 634 kts 353°
2026-05-07 18:42 64.21954 -21.52633 14223 ft 635 kts 351°
2026-05-07 18:43 64.26304 -21.54376 14224 ft 635 kts 349°